• In Uzbekistan
  • List of Countries
  • For 7 days
  • Water Temperature
  • Satellite Maps
  • Weather Map
  • Weather Widgets
  • user-avatar
    Login

    Hourly Weather Solden

    Today, 21 July, Friday

    Time Temperature Precipitation Wind Pressure Humidity
    00:00 +8°C° 0.3 mm 1 mps 584 mmHg 90%
    01:00 +8°C° 0 mm 1 mps 584 mmHg 89%
    02:00 +8°C° 0.2 mm 1 mps 584 mmHg 89%
    03:00 +7°C° 0.2 mm 1 mps 583 mmHg 90%
    04:00 +7°C° 0.2 mm 1 mps 583 mmHg 90%
    05:00 +8°C° 0.3 mm 1 mps 584 mmHg 86%
    06:00 +10°C° 0.3 mm 1 mps 585 mmHg 82%
    07:00 +11°C° 0.3 mm 1 mps 585 mmHg 78%
    08:00 +13°C° 0.2 mm 1 mps 586 mmHg 70%
    09:00 +15°C° 0.2 mm 2 mps 587 mmHg 62%
    10:00 +16°C° 0.2 mm 2 mps 588 mmHg 54%
    11:00 +17°C° 0.6 mm 2 mps 588 mmHg 53%
    12:00 +17°C° 0.6 mm 2 mps 588 mmHg 51%
    13:00 +18°C° 0.6 mm 3 mps 588 mmHg 50%
    14:00 +18°C° 1 mm 3 mps 587 mmHg 52%
    15:00 +17°C° 1 mm 3 mps 587 mmHg 54%
    16:00 +17°C° 1 mm 2 mps 587 mmHg 56%
    17:00 +16°C° 1.2 mm 2 mps 586 mmHg 64%
    18:00 +14°C° 1.2 mm 2 mps 586 mmHg 71%
    19:00 +13°C° 1.2 mm 1 mps 585 mmHg 79%
    20:00 +12°C° 0.7 mm 1 mps 585 mmHg 82%
    21:00 +9°C° 0.7 mm 2 mps 584 mmHg 84%
    22:00 +8°C° 0.7 mm 2 mps 584 mmHg 87%
    23:00 +8°C° 0.5 mm 2 mps 584 mmHg 88%

    Tomorrow, 22 July, Saturday

    Time Temperature Precipitation Wind Pressure Humidity
    00:00 +8°C° 0.5 mm 2 mps 584 mmHg 89%
    01:00 +7°C° 0.5 mm 2 mps 584 mmHg 90%
    02:00 +7°C° 0.4 mm 2 mps 584 mmHg 90%
    03:00 +8°C° 0.4 mm 1 mps 584 mmHg 90%
    04:00 +8°C° 0.4 mm 1 mps 583 mmHg 90%
    05:00 +9°C° 0.1 mm 1 mps 584 mmHg 85%
    06:00 +10°C° 0.1 mm 1 mps 585 mmHg 81%
    07:00 +11°C° 0.1 mm 1 mps 585 mmHg 77%
    08:00 +13°C° 0 mm 1 mps 586 mmHg 69%
    09:00 +15°C° 0 mm 1 mps 587 mmHg 61%
    10:00 +18°C° 0 mm 1 mps 588 mmHg 52%
    11:00 +19°C° 0.2 mm 1 mps 588 mmHg 52%
    12:00 +19°C° 0.2 mm 1 mps 588 mmHg 52%
    13:00 +19°C° 0.2 mm 1 mps 588 mmHg 51%
    14:00 +18°C° 0.7 mm 2 mps 588 mmHg 54%
    15:00 +18°C° 0.7 mm 2 mps 588 mmHg 56%
    16:00 +18°C° 0.7 mm 2 mps 588 mmHg 58%
    17:00 +16°C° 0.8 mm 2 mps 588 mmHg 65%
    18:00 +15°C° 0.8 mm 1 mps 587 mmHg 73%
    19:00 +14°C° 0.8 mm 1 mps 587 mmHg 80%
    20:00 +12°C° 0.6 mm 1 mps 586 mmHg 85%
    21:00 +11°C° 0.6 mm 1 mps 586 mmHg 89%
    22:00 +9°C° 0.6 mm 0 mps 586 mmHg 94%
    23:00 +10°C° 0.4 mm 1 mps 585 mmHg 94%

    Day after tomorrow, 23 July, Sunday

    Time Temperature Precipitation Wind Pressure Humidity
    00:00 +10°C° 0.4 mm 1 mps 585 mmHg 94%
    01:00 +9°C° 0.4 mm 1 mps 585 mmHg 94%
    02:00 +9°C° 0.2 mm 1 mps 585 mmHg 94%
    03:00 +8°C° 0.2 mm 1 mps 584 mmHg 93%
    04:00 +8°C° 0.2 mm 1 mps 584 mmHg 93%
    05:00 +9°C° 0.1 mm 1 mps 585 mmHg 89%
    06:00 +11°C° 0.1 mm 1 mps 586 mmHg 84%
    07:00 +12°C° 0.1 mm 1 mps 586 mmHg 80%
    08:00 +13°C° 0.1 mm 1 mps 587 mmHg 72%
    09:00 +15°C° 0.1 mm 1 mps 588 mmHg 65%
    10:00 +18°C° 0.1 mm 1 mps 589 mmHg 57%
    11:00 +18°C° 0.5 mm 1 mps 588 mmHg 58%
    12:00 +17°C° 0.5 mm 2 mps 588 mmHg 59%
    13:00 +17°C° 0.5 mm 2 mps 588 mmHg 60%
    14:00 +17°C° 0.8 mm 2 mps 588 mmHg 63%
    15:00 +16°C° 0.8 mm 2 mps 588 mmHg 66%
    16:00 +16°C° 0.8 mm 2 mps 587 mmHg 69%
    17:00 +15°C° 1 mm 2 mps 587 mmHg 75%
    18:00 +14°C° 1 mm 2 mps 586 mmHg 81%
    19:00 +13°C° 1 mm 1 mps 586 mmHg 86%
    20:00 +11°C° 1 mm 1 mps 585 mmHg 89%
    21:00 +10°C° 1 mm 1 mps 585 mmHg 92%
    22:00 +9°C° 1 mm 1 mps 584 mmHg 94%
    23:00 +9°C° 0.4 mm 1 mps 584 mmHg 95%

    24 July, Monday

    Time Temperature Precipitation Wind Pressure Humidity
    00:00 +9°C° 0.4 mm 1 mps 584 mmHg 95%
    01:00 +8°C° 0.4 mm 1 mps 583 mmHg 95%
    02:00 +8°C° 0.8 mm 1 mps 583 mmHg 95%
    03:00 +8°C° 0.8 mm 1 mps 582 mmHg 95%
    04:00 +8°C° 0.8 mm 1 mps 582 mmHg 95%
    05:00 +8°C° 0.8 mm 1 mps 582 mmHg 93%
    06:00 +9°C° 0.8 mm 1 mps 581 mmHg 91%
    07:00 +10°C° 0.8 mm 1 mps 581 mmHg 89%
    08:00 +11°C° 0.8 mm 1 mps 582 mmHg 84%
    09:00 +11°C° 0.8 mm 1 mps 582 mmHg 80%
    10:00 +12°C° 0.8 mm 1 mps 582 mmHg 76%
    11:00 +12°C° 2 mm 1 mps 581 mmHg 79%
    12:00 +10°C° 2 mm 2 mps 581 mmHg 82%
    13:00 +10°C° 2 mm 2 mps 580 mmHg 84%
    14:00 +9°C° 2.8 mm 2 mps 580 mmHg 86%
    15:00 +8°C° 2.8 mm 2 mps 580 mmHg 88%
    16:00 +7°C° 2.8 mm 2 mps 579 mmHg 89%
    17:00 +6°C° 0.6 mm 2 mps 579 mmHg 89%
    18:00 +5°C° 0.6 mm 3 mps 579 mmHg 89%
    19:00 +4°C° 0.6 mm 3 mps 579 mmHg 89%
    20:00 +3°C° 0.1 mm 3 mps 579 mmHg 90%
    21:00 +3°C° 0.1 mm 3 mps 579 mmHg 91%
    22:00 +3°C° 0.1 mm 2 mps 578 mmHg 92%
    23:00 +3°C° 0.1 mm 2 mps 578 mmHg 91%

    25 July, Tuesday

    Time Temperature Precipitation Wind Pressure Humidity
    00:00 +2°C° 0.1 mm 2 mps 578 mmHg 90%
    01:00 +2°C° 0.1 mm 2 mps 578 mmHg 90%
    02:00 +2°C° 0.2 mm 2 mps 578 mmHg 89%
    03:00 +2°C° 0.2 mm 2 mps 578 mmHg 89%
    04:00 +1°C° 0.2 mm 2 mps 578 mmHg 88%
    05:00 +2°C° 0.2 mm 2 mps 578 mmHg 85%
    06:00 +3°C° 0.2 mm 2 mps 579 mmHg 81%
    07:00 +4°C° 0.2 mm 2 mps 579 mmHg 77%
    08:00 +6°C° 0.3 mm 2 mps 580 mmHg 71%
    09:00 +9°C° 0.3 mm 1 mps 580 mmHg 65%
    10:00 +10°C° 0.3 mm 1 mps 581 mmHg 58%
    11:00 +9°C° 0.5 mm 2 mps 581 mmHg 59%
    12:00 +10°C° 0.5 mm 2 mps 581 mmHg 59%
    13:00 +10°C° 0.5 mm 2 mps 581 mmHg 59%
    14:00 +10°C° 0.6 mm 2 mps 581 mmHg 61%
    15:00 +9°C° 0.6 mm 2 mps 581 mmHg 63%
    16:00 +9°C° 0.6 mm 2 mps 581 mmHg 65%
    17:00 +8°C° 0.2 mm 2 mps 581 mmHg 67%
    18:00 +7°C° 0.2 mm 2 mps 580 mmHg 70%
    19:00 +7°C° 0.2 mm 2 mps 580 mmHg 73%
    20:00 +5°C° 0.1 mm 2 mps 580 mmHg 76%
    21:00 +4°C° 0.1 mm 2 mps 579 mmHg 80%
    22:00 +3°C° 0.1 mm 2 mps 579 mmHg 83%
    23:00 +3°C° 0.1 mm 2 mps 579 mmHg 83%

    26 July, Wednesday

    Time Temperature Precipitation Wind Pressure Humidity
    00:00 +3°C° 0.1 mm 2 mps 579 mmHg 83%
    01:00 +3°C° 0.1 mm 2 mps 579 mmHg 84%
    02:00 +3°C° 0.2 mm 2 mps 579 mmHg 83%
    03:00 +3°C° 0.2 mm 2 mps 579 mmHg 83%
    04:00 +3°C° 0.2 mm 2 mps 579 mmHg 83%
    05:00 +3°C° 0.1 mm 2 mps 580 mmHg 81%
    06:00 +4°C° 0.1 mm 2 mps 580 mmHg 78%
    07:00 +5°C° 0.1 mm 2 mps 581 mmHg 75%
    08:00 +7°C° 0 mm 2 mps 582 mmHg 68%
    09:00 +9°C° 0 mm 2 mps 583 mmHg 61%
    10:00 +12°C° 0 mm 1 mps 584 mmHg 54%
    11:00 +13°C° 0 mm 2 mps 584 mmHg 50%
    12:00 +14°C° 0 mm 2 mps 585 mmHg 47%
    13:00 +15°C° 0 mm 2 mps 585 mmHg 43%
    14:00 +15°C° 0 mm 2 mps 585 mmHg 43%
    15:00 +15°C° 0 mm 2 mps 585 mmHg 43%
    16:00 +15°C° 0 mm 2 mps 585 mmHg 42%
    17:00 +14°C° 0 mm 2 mps 584 mmHg 50%
    18:00 +12°C° 0 mm 1 mps 584 mmHg 57%
    19:00 +11°C° 0 mm 1 mps 583 mmHg 64%
    20:00 +9°C° 0 mm 1 mps 583 mmHg 69%
    21:00 +7°C° 0 mm 1 mps 582 mmHg 75%
    22:00 +5°C° 0 mm 1 mps 582 mmHg 80%
    23:00 +5°C° 0 mm 1 mps 582 mmHg 80%
    Show more